TimeCDT,TemperatureF,Dew PointF,Humidity,Sea Level PressureIn,VisibilityMPH,Wind Direction,Wind SpeedMPH,Gust SpeedMPH,PrecipitationIn,Events,Conditions,WindDirDegrees,DateUTC
12:56 AM,77.0,70.0,79,30.01,10.0,SSE,3.5,-,N/A,,Clear,150,2013-08-29 05:56:00
1:56 AM,75.0,69.1,82,30.01,10.0,SE,5.8,-,N/A,,Mostly Cloudy,130,2013-08-29 06:56:00
2:56 AM,75.0,69.1,82,30.01,10.0,SE,4.6,-,N/A,,Mostly Cloudy,140,2013-08-29 07:56:00
3:56 AM,73.0,69.1,87,30.01,10.0,ESE,4.6,-,N/A,,Partly Cloudy,120,2013-08-29 08:56:00
4:56 AM,72.0,69.1,91,30.01,10.0,South,3.5,-,N/A,,Mostly Cloudy,180,2013-08-29 09:56:00
5:56 AM,72.0,69.1,91,30.01,10.0,South,5.8,-,N/A,,Clear,170,2013-08-29 10:56:00
6:46 AM,71.6,69.8,94,30.04,10.0,South,5.8,-,N/A,,Mostly Cloudy,170,2013-08-29 11:46:00
6:56 AM,72.0,69.1,91,30.02,10.0,SSE,6.9,-,N/A,,Mostly Cloudy,150,2013-08-29 11:56:00
7:07 AM,73.4,69.8,88,30.04,10.0,South,8.1,-,N/A,,Partly Cloudy,170,2013-08-29 12:07:00
7:56 AM,73.9,69.1,85,30.01,10.0,SSE,9.2,-,N/A,,Scattered Clouds,150,2013-08-29 12:56:00
8:23 AM,75.2,69.8,83,30.03,10.0,SSE,8.1,-,N/A,,Mostly Cloudy,150,2013-08-29 13:23:00
8:36 AM,77.0,69.8,78,30.03,10.0,SSE,6.9,-,N/A,,Mostly Cloudy,150,2013-08-29 13:36:00
8:47 AM,77.0,69.8,78,30.03,10.0,SE,9.2,-,N/A,,Mostly Cloudy,140,2013-08-29 13:47:00
8:56 AM,78.1,70.0,76,30.01,10.0,SE,8.1,-,N/A,,Mostly Cloudy,140,2013-08-29 13:56:00
9:32 AM,78.8,69.8,74,30.02,10.0,SE,9.2,-,N/A,,Mostly Cloudy,140,2013-08-29 14:32:00
9:56 AM,80.1,70.0,71,30.01,10.0,South,8.1,-,N/A,,Mostly Cloudy,170,2013-08-29 14:56:00
10:56 AM,81.0,71.1,72,30.02,10.0,SSE,9.2,-,N/A,,Overcast,160,2013-08-29 15:56:00
11:14 AM,82.4,71.6,70,30.03,10.0,South,6.9,-,N/A,,Scattered Clouds,180,2013-08-29 16:14:00
11:56 AM,84.0,72.0,67,29.98,10.0,SSE,11.5,-,N/A,,Clear,150,2013-08-29 16:56:00
12:56 PM,87.1,73.0,63,29.96,10.0,South,9.2,18.4,N/A,,Clear,170,2013-08-29 17:56:00
1:56 PM,89.1,73.0,59,29.95,10.0,South,11.5,-,N/A,,Scattered Clouds,170,2013-08-29 18:56:00
2:56 PM,91.0,73.0,55,29.93,10.0,South,12.7,17.3,N/A,,Clear,170,2013-08-29 19:56:00
3:56 PM,91.9,71.1,50,29.90,10.0,SSW,9.2,17.3,N/A,,Clear,200,2013-08-29 20:56:00
4:56 PM,91.9,70.0,48,29.88,10.0,SSW,10.4,-,N/A,,Partly Cloudy,210,2013-08-29 21:56:00
5:56 PM,89.1,70.0,53,29.86,10.0,South,13.8,-,N/A,,Clear,190,2013-08-29 22:56:00
6:56 PM,88.0,73.0,61,29.87,10.0,South,8.1,-,N/A,,Mostly Cloudy,170,2013-08-29 23:56:00
7:56 PM,86.0,72.0,63,29.88,10.0,South,6.9,-,N/A,,Clear,190,2013-08-30 00:56:00
8:56 PM,84.0,72.0,67,29.88,10.0,South,8.1,-,N/A,,Partly Cloudy,180,2013-08-30 01:56:00
9:56 PM,82.0,73.9,76,29.88,10.0,South,6.9,-,N/A,,Clear,190,2013-08-30 02:56:00
10:56 PM,82.0,73.9,76,29.88,10.0,South,8.1,-,N/A,,Partly Cloudy,180,2013-08-30 03:56:00
11:56 PM,80.1,73.9,81,29.85,10.0,South,8.1,-,N/A,,Partly Cloudy,190,2013-08-30 04:56:00